User: anonymous   Login
Location: Muenchen
(48.1800°N, 11.5800°E)
Time: 10:49:23
(UTC+02:00)
Language:

Iridium 37 - Orbit

View from above orbital plane
View from above orbital plane
View from above satellite
View from above satellite

Ground track
Ground track

The orbit data is extracted from the following two-line orbital elements,

1 24968U 97056D   17144.87675451 -.00000016 +00000-0 -12755-4 0  9999
2 24968 086.3936 328.6303 0002060 088.4414 271.7018 14.34217992028983
Epoch (UTC): 24 May 2017 21:02:31
Eccentricity: 0.0002060
inclination: 86.3936°
perigee height: 776 km
apogee height: 779 km
right ascension of ascending node: 328.6303°
argument of perigee: 88.4414°
revolutions per day: 14.34217992
mean anomaly at epoch: 271.7018°
orbit number at epoch: 2898

The dashed part of the orbit path shows where the satellite is in the earth's shadow,  

DLR